Back to catalog

COSMOS 839 DEB

AliveUNKNOWN
NORAD 19439·DEBRIS·🇷🇺 Russia

Launched Jul 8, 1976 from Plesetsk Cosmodrome

Loading…

Next Passes (next 24 hours)

TLE

FreshSource: Space-Track

Epoch: Sep 12, 2026, 18:24 UTC

1 19439U 76067BS  26255.76680744  .00000412  00000-0  16031-2 0  9994
2 19439  65.8730  15.3080 0694928 178.5224 336.5142 12.36358679593620

Track COSMOS 839 DEB in real time with AllMySat

Download on the App Store